Weather Roundup
Issued by NWS Chicago, IL

Home | Current Version | Previous Version | Text Only | Print | Product List | Glossary On
Versions: 1 2 3 4 5 6 7 8 9 10 11 12 13 14 15 16 17 18 19 20 21 22 23 24 25 26 27 28 29 30 31 32 33 34 35 36 37 38 39 40 41 42 43 44 45 46 47 48 49 50
000
NZUS59 KLOT 251408
HRRLOT

CHICAGO AREA WEATHER ROUNDUP
NATIONAL WEATHER SERVICE CHICAGO/ROMEOVILLE IL
900 AM CDT SUN SEP 25 2016

NOTE: "FAIR" INDICATES FEW OR NO CLOUDS BELOW 12,000 FEET WITH NO
SIGNIFICANT WEATHER AND/OR OBSTRUCTIONS TO VISIBILITY.

* THESE STATIONS ARE NOT UNDER NWS QUALITY CONTROL. THEY ALSO MAY NOT
  REPORT WEATHER SUCH AS PRECIPITATION OR FOG.

ILZ005-006-012>014-019>023-251500-
NORTHEAST ILLINOIS

CITY           SKY/WX    TMP DP  RH WIND       PRES   REMARKS
OHARE          PTSUNNY   67  58  72 SE10      30.08S
MIDWAY         MOSUNNY   68  56  65 SE7       30.08F
AURORA         MOSUNNY   68  62  81 SE13      30.07F
LANSING*       MOSUNNY   65  58  77 SE8       30.10F
JOLIET*        SUNNY     68  63  82 SE10      30.08F
WAUKEGAN       SUNNY     67  59  75 SE15G22   30.07F
DUPAGE AIRPORT SUNNY     68  60  75 SE8       30.06F
WHEELING       SUNNY     67  59  75 SE10      30.09F
KANKAKEE*      SUNNY     68  61  79 SE7       30.09F
MORRIS*        SUNNY     69  63  80 SE7       30.06F
LEWIS AIRPORT* SUNNY     67  63  86 S8        30.08F
NORTHERLY ISL    N/A     67  56  67 SE8         N/A
$$

WIZ051-052-058>065-066-070>072-251500-
SOUTHEAST WISCONSIN

CITY           SKY/WX    TMP DP  RH WIND       PRES   REMARKS
MILWAUKEE      CLOUDY    69  62  78 S13       30.08S
KENOSHA*       MOSUNNY   68  60  75 S12       30.08F
RACINE*        SUNNY     68  60  75 S15G22    30.09F
BURLINGTON     CLOUDY    66  61  83 SE5       30.07S
WAUKESHA       SUNNY     64  61  88 SE7       30.08F
WEST BEND      PTSUNNY   68  63  83 SE7       30.06F
$$

INZ001>003-010>013-019-020-251500-
NORTHWEST INDIANA

CITY           SKY/WX    TMP DP  RH WIND       PRES   REMARKS
GARY*          MOSUNNY   66  55  68 S14       30.11S
MICHIGAN CITY* NOT AVBL
RENSSELAER*    NOT AVBL
VALPARAISO     MOSUNNY   64  53  67 SE8       30.13F
$$

LMZ740>746-251500-
SOUTHERN LAKE MICHIGAN

STATION/POSITION TIME  SKY/WX   TEMP WIND        PRES    VSBY
                                AIR  DIR/SP/G
                 (UTC)          (F)  (DEG/KT/KT) (MB)    (MI)
HARRISON CRIB    1300            66  150/ 20/ 21   N/A
BURNHAM HARBOR   1400            68  130/  6/ 11   N/A
CALUMET HARBOR   1300            64  140/  8/ 11 1018.8F
BURNS HARBOR     1300            64  140/ 16/ 22 1019.6F
MICHIGAN CITY    1300            63  120/ 16/ 19   N/A
$$

ABBREVIATIONS USED IN REMARKS
   TC - TEMPERATURE IN CELSIUS
  WCI - WIND CHILL INDEX
   HX - HEAT INDEX
  VSB - VISIBILITY
$$



USA.gov is the U.S. government's official web portal to all federal, state and local government web resources and services.